Content
SEND FEEDBACK

Daily
Averages
Monthly
Summary
United States of America

CHICAGO, ILLINOIS


Home > North America > United States > Illinois
Elevation: 674 feet     Latitude: 41 59N     Longitude: 087 54W

WEATHER
 
SELECT A DAY
Number of Records: 197,256;   Date Range: 7/8/95 - 9/30/14
 
SHARE

PRINT THIS DATA

[ ← Previous Day ]
WEATHER ALMANAC - MAY 17, 2013
[ Next Day → ]
[ °C ]   °F
Weather ElementAverageHighLow
Temperature58.5 °F66 °F (10:52 am)53.1 °F (2:52 am)
Dewpoint45.2 °F50 °F (10:52 am)41 °F (1:52 am)
Humidity61.3 %67 % (9:52 pm)50 % (2:52 pm)
Barometer30.04 in30.08 in (11:52 am)29.97 in (2:52 am)
Wind Speed4.2 mph11.5 mph (11:52 am)
Weather ElementAverage
Visibility10 mi
Wind DirectionNNE (28.7 °)

Weather ElementTotal
Precipitation---
Heating Degree Days5.5 (Base 65)
Growing Degree Days9.6 (Base 50)
Averaged from 23 records on May 17, 2013
WEATHER CONDITIONS BREAKOUT
WIND DIRECTION BREAKOUT
WEATHER BY HOUR - MAY 17, 2013
[ °C ]   °F
Local TimeTemperatureDewpointHumidityBarometerVisibilityWind DirectionWind SpeedGust SpeedPrecipitationEventsConditions
1:52 AM54.0 °F41.0 °F62 %29.99 in10.0 miCalmClear
2:52 AM53.1 °F42.1 °F66 %29.97 in10.0 miCalmClear
3:52 AM53.1 °F42.1 °F66 %29.98 in10.0 miCalmClear
4:52 AM54.0 °F43.0 °F66 %29.99 in10.0 miCalmMostly Cloudy
5:52 AM55.9 °F44.1 °F64 %30.01 in10.0 miCalmOvercast
6:52 AM57.0 °F45.0 °F64 %30.03 in10.0 miNNE (20°)3.5 mphOvercast
7:52 AM57.9 °F46.0 °F65 %30.03 in10.0 miEast (90°)4.6 mphScattered Clouds
8:52 AM61.0 °F46.9 °F60 %30.04 in10.0 miENE (70°)4.6 mphMostly Cloudy
9:52 AM63.0 °F48.0 °F58 %30.05 in10.0 miCalmMostly Cloudy
10:52 AM66.0 °F50.0 °F56 %30.05 in10.0 miNNE (20°)5.8 mphMostly Cloudy
11:52 AM60.1 °F46.0 °F60 %30.08 in10.0 miENE (60°)11.5 mphOvercast
12:52 PM57.0 °F44.1 °F62 %30.08 in10.0 miNE (40°)9.2 mphMostly Cloudy
1:52 PM60.1 °F44.1 °F55 %30.08 in10.0 miNNE (30°)11.5 mphScattered Clouds
2:52 PM63.0 °F44.1 °F50 %30.06 in10.0 miENE (60°)11.5 mphClear
3:52 PM64.0 °F46.0 °F52 %30.04 in10.0 miNE (50°)8.1 mphMostly Cloudy
4:52 PM60.1 °F46.0 °F60 %30.05 in10.0 miNE (50°)6.9 mphOvercast
5:52 PM57.9 °F45.0 °F62 %30.07 in10.0 miCalmOvercast
6:52 PM59.0 °F46.0 °F62 %30.06 in10.0 miNNE (30°)4.6 mphOvercast
7:52 PM60.1 °F45.0 °F57 %30.06 in10.0 miENE (70°)5.8 mphOvercast
8:52 PM57.9 °F46.0 °F65 %30.06 in10.0 miENE (60°)4.6 mph0.00 inRainLight Rain
9:52 PM57.0 °F46.0 °F67 %30.06 in10.0 miCalm0.00 inOvercast
10:52 PM57.9 °F46.0 °F65 %30.04 in10.0 miNorth (10°)3.5 mphOvercast
11:52 PM57.0 °F46.0 °F67 %30.04 in10.0 miCalmOvercast
Hourly data recorded from KPWK, located miles away from Chicago, Illinois







STORIES FROM OUR PARTNERS